Time,TemperatureF,DewpointF,PressureIn,WindDirection,WindDirectionDegrees,WindSpeedMPH,WindSpeedGustMPH,Humidity,HourlyPrecipIn,Conditions,Clouds,dailyrainin,SoftwareType,DateUTC
2013-05-11 00:03:00,63.0,57.0,29.82,South,175,2.0,5.0,81,0.00,,,0.00,,2013-05-11 04:03:00,
2013-05-11 00:12:00,63.0,57.0,29.82,South,175,2.0,5.0,81,0.00,,,0.00,,2013-05-11 04:12:00,
2013-05-11 00:23:00,62.0,56.0,29.82,South,175,0.0,3.0,81,0.00,,,0.00,,2013-05-11 04:23:00,
2013-05-11 00:33:00,63.0,56.0,29.83,WSW,248,4.0,9.0,78,0.00,,,0.00,,2013-05-11 04:33:00,
2013-05-11 00:43:00,65.0,56.0,29.83,West,274,1.0,8.0,73,0.00,,,0.00,,2013-05-11 04:43:00,
2013-05-11 00:52:00,65.0,56.0,29.83,West,274,1.0,8.0,73,0.00,,,0.00,,2013-05-11 04:52:00,
2013-05-11 01:02:00,66.0,57.0,29.82,West,274,0.0,1.0,72,0.00,,,0.00,,2013-05-11 05:02:00,
2013-05-11 01:12:00,66.0,57.0,29.82,West,274,0.0,1.0,72,0.00,,,0.00,,2013-05-11 05:12:00,
2013-05-11 01:22:00,66.0,57.0,29.82,West,259,2.0,5.0,74,0.00,,,0.00,,2013-05-11 05:22:00,
2013-05-11 01:32:00,66.0,57.0,29.82,West,259,0.0,5.0,72,0.00,,,0.00,,2013-05-11 05:32:00,
2013-05-11 01:42:00,66.0,57.0,29.82,West,259,0.0,5.0,72,0.00,,,0.00,,2013-05-11 05:42:00,
2013-05-11 01:52:00,66.0,57.0,29.82,West,262,3.0,6.0,73,0.00,,,0.00,,2013-05-11 05:52:00,
2013-05-11 02:02:00,66.0,59.0,29.82,WNW,287,3.0,7.0,79,0.00,,,0.00,,2013-05-11 06:02:00,
2013-05-11 02:12:00,66.0,59.0,29.82,WNW,287,3.0,7.0,79,0.00,,,0.00,,2013-05-11 06:12:00,
2013-05-11 02:22:00,66.0,59.0,29.82,WNW,287,3.0,7.0,79,0.00,,,0.00,,2013-05-11 06:22:00,
2013-05-11 02:32:00,65.0,61.0,29.82,West,280,5.0,11.0,86,0.00,,,0.00,,2013-05-11 06:32:00,
2013-05-11 02:42:00,65.0,61.0,29.82,West,265,2.0,9.0,88,0.02,,,0.02,,2013-05-11 06:42:00,
2013-05-11 02:53:00,65.0,61.0,29.82,West,265,2.0,9.0,88,0.02,,,0.02,,2013-05-11 06:53:00,
2013-05-11 03:02:00,64.0,62.0,29.81,WSW,244,1.0,6.0,92,0.05,,,0.05,,2013-05-11 07:02:00,
2013-05-11 03:12:00,64.0,62.0,29.81,WSW,244,1.0,6.0,92,0.05,,,0.05,,2013-05-11 07:12:00,
2013-05-11 03:21:00,64.0,62.0,29.81,SW,221,2.0,6.0,92,0.05,,,0.05,,2013-05-11 07:21:00,
2013-05-11 03:32:00,63.0,61.0,29.79,SSW,212,1.0,6.0,93,0.08,,,0.08,,2013-05-11 07:32:00,
2013-05-11 03:42:00,63.0,61.0,29.79,SSW,212,1.0,6.0,93,0.08,,,0.08,,2013-05-11 07:42:00,
2013-05-11 03:52:00,63.0,61.0,29.79,SSW,213,0.0,4.0,94,0.06,,,0.09,,2013-05-11 07:52:00,
2013-05-11 04:02:00,63.0,62.0,29.79,South,173,1.0,6.0,95,0.04,,,0.09,,2013-05-11 08:02:00,
2013-05-11 04:12:00,63.0,62.0,29.79,South,173,1.0,6.0,95,0.04,,,0.09,,2013-05-11 08:12:00,
2013-05-11 04:21:00,63.0,62.0,29.79,SSW,200,2.0,6.0,95,0.03,,,0.09,,2013-05-11 08:21:00,
2013-05-11 04:32:00,63.0,62.0,29.78,South,179,2.0,7.0,95,0.01,,,0.10,,2013-05-11 08:32:00,
2013-05-11 04:42:00,63.0,62.0,29.78,South,184,5.0,12.0,95,0.01,,,0.10,,2013-05-11 08:42:00,
2013-05-11 04:52:00,63.0,62.0,29.78,South,184,5.0,12.0,95,0.01,,,0.10,,2013-05-11 08:52:00,
2013-05-11 05:01:00,63.0,62.0,29.78,WSW,247,4.0,14.0,95,0.02,,,0.11,,2013-05-11 09:01:00,
2013-05-11 05:11:00,63.0,62.0,29.78,WSW,247,4.0,14.0,95,0.02,,,0.11,,2013-05-11 09:11:00,
2013-05-11 05:21:00,63.0,61.0,29.78,SSW,207,5.0,11.0,94,0.02,,,0.11,,2013-05-11 09:21:00,
2013-05-11 05:32:00,63.0,61.0,29.76,WSW,237,2.0,9.0,94,0.02,,,0.12,,2013-05-11 09:32:00,
2013-05-11 05:42:00,63.0,61.0,29.76,SW,216,1.0,9.0,94,0.02,,,0.12,,2013-05-11 09:42:00,
2013-05-11 05:52:00,63.0,61.0,29.76,SW,216,1.0,9.0,94,0.02,,,0.12,,2013-05-11 09:52:00,
2013-05-11 06:03:00,63.0,61.0,29.76,SSW,198,1.0,7.0,94,0.01,,,0.12,,2013-05-11 10:03:00,
2013-05-11 06:12:00,63.0,61.0,29.76,SSW,198,1.0,7.0,94,0.01,,,0.12,,2013-05-11 10:12:00,
2013-05-11 06:22:00,63.0,61.0,29.76,South,184,0.0,6.0,93,0.01,,,0.12,,2013-05-11 10:22:00,
2013-05-11 06:33:00,61.0,59.0,29.76,South,184,5.0,10.0,93,0.00,,,0.12,,2013-05-11 10:33:00,
2013-05-11 06:42:00,61.0,60.0,29.76,SSE,148,3.0,9.0,95,0.00,,,0.12,,2013-05-11 10:42:00,
2013-05-11 06:52:00,61.0,60.0,29.76,SSE,148,3.0,9.0,95,0.00,,,0.12,,2013-05-11 10:52:00,
2013-05-11 07:02:00,61.0,60.0,29.76,SSE,159,4.0,10.0,95,0.00,,,0.12,,2013-05-11 11:02:00,
2013-05-11 07:12:00,61.0,60.0,29.76,SSE,159,4.0,10.0,95,0.00,,,0.12,,2013-05-11 11:12:00,
2013-05-11 07:22:00,61.0,60.0,29.76,SSE,153,6.0,10.0,95,0.00,,,0.12,,2013-05-11 11:22:00,
2013-05-11 07:32:00,61.0,60.0,29.77,South,189,3.0,9.0,95,0.00,,,0.12,,2013-05-11 11:32:00,
2013-05-11 07:42:00,61.0,60.0,29.77,SSW,212,5.0,9.0,95,0.00,,,0.12,,2013-05-11 11:42:00,
2013-05-11 07:51:00,61.0,60.0,29.77,SSW,212,5.0,9.0,95,0.00,,,0.12,,2013-05-11 11:51:00,
2013-05-11 08:01:00,62.0,60.0,29.77,SSW,202,3.0,11.0,94,0.00,,,0.12,,2013-05-11 12:01:00,
2013-05-11 08:11:00,62.0,60.0,29.77,SSW,202,3.0,11.0,94,0.00,,,0.12,,2013-05-11 12:11:00,
2013-05-11 08:22:00,63.0,61.0,29.77,SSW,210,3.0,8.0,94,0.00,,,0.12,,2013-05-11 12:22:00,
2013-05-11 08:32:00,63.0,61.0,29.77,SW,229,2.0,8.0,93,0.00,,,0.12,,2013-05-11 12:32:00,
2013-05-11 08:42:00,64.0,62.0,29.77,SSW,211,3.0,8.0,92,0.00,,,0.12,,2013-05-11 12:42:00,
2013-05-11 08:51:00,64.0,62.0,29.77,SSW,211,3.0,8.0,92,0.00,,,0.12,,2013-05-11 12:51:00,
2013-05-11 09:02:00,65.0,62.0,29.76,SSE,154,2.0,11.0,90,0.00,,,0.12,,2013-05-11 13:02:00,
2013-05-11 09:11:00,65.0,62.0,29.76,SSE,154,2.0,11.0,90,0.00,,,0.12,,2013-05-11 13:11:00,
2013-05-11 09:21:00,65.0,62.0,29.76,South,183,7.0,14.0,89,0.00,,,0.12,,2013-05-11 13:21:00,
2013-05-11 09:32:00,64.0,60.0,29.75,West,259,9.0,18.0,88,0.00,,,0.12,,2013-05-11 13:32:00,
2013-05-11 09:42:00,65.0,61.0,29.75,WSW,258,6.0,18.0,88,0.00,,,0.12,,2013-05-11 13:42:00,
2013-05-11 09:52:00,65.0,61.0,29.75,WSW,258,6.0,18.0,88,0.00,,,0.12,,2013-05-11 13:52:00,
2013-05-11 10:02:00,66.0,61.0,29.75,South,186,6.0,14.0,85,0.00,,,0.12,,2013-05-11 14:02:00,
2013-05-11 10:11:00,66.0,61.0,29.75,South,186,6.0,14.0,85,0.00,,,0.12,,2013-05-11 14:11:00,
2013-05-11 10:21:00,66.0,61.0,29.75,South,181,7.0,14.0,83,0.00,,,0.12,,2013-05-11 14:21:00,
2013-05-11 10:32:00,64.0,60.0,29.76,WSW,242,8.0,19.0,86,0.00,,,0.12,,2013-05-11 14:32:00,
2013-05-11 10:42:00,64.0,60.0,29.76,WSW,242,8.0,19.0,86,0.00,,,0.12,,2013-05-11 14:42:00,
2013-05-11 10:51:00,63.0,59.0,29.76,SSW,213,3.0,9.0,87,0.00,,,0.12,,2013-05-11 14:51:00,
2013-05-11 11:01:00,62.0,60.0,29.73,South,182,3.0,12.0,92,0.01,,,0.13,,2013-05-11 15:01:00,
2013-05-11 11:11:00,62.0,60.0,29.73,South,182,3.0,12.0,92,0.01,,,0.13,,2013-05-11 15:11:00,
2013-05-11 11:21:00,62.0,60.0,29.73,SSE,163,5.0,16.0,92,0.01,,,0.13,,2013-05-11 15:21:00,
2013-05-11 11:32:00,63.0,61.0,29.74,WSW,240,8.0,16.0,92,0.01,,,0.13,,2013-05-11 15:32:00,
2013-05-11 11:43:00,63.0,60.0,29.74,SW,227,9.0,17.0,91,0.01,,,0.13,,2013-05-11 15:43:00,
2013-05-11 11:53:00,63.0,60.0,29.74,SW,227,9.0,17.0,91,0.01,,,0.13,,2013-05-11 15:53:00,
2013-05-11 12:03:00,64.0,61.0,29.74,SE,142,6.0,18.0,89,0.00,,,0.13,,2013-05-11 16:03:00,
2013-05-11 12:12:00,64.0,61.0,29.74,SE,142,6.0,18.0,89,0.00,,,0.13,,2013-05-11 16:12:00,
2013-05-11 12:23:00,64.0,61.0,29.74,SW,228,6.0,17.0,89,0.00,,,0.13,,2013-05-11 16:23:00,
2013-05-11 12:33:00,65.0,61.0,29.74,South,181,5.0,12.0,88,0.00,,,0.13,,2013-05-11 16:33:00,
2013-05-11 12:42:00,65.0,61.0,29.74,SSE,151,5.0,22.0,88,0.00,,,0.13,,2013-05-11 16:42:00,
2013-05-11 12:52:00,65.0,61.0,29.74,SSE,151,5.0,22.0,88,0.00,,,0.13,,2013-05-11 16:52:00,
2013-05-11 13:02:00,63.0,60.0,29.73,South,173,4.0,14.0,89,0.00,,,0.13,,2013-05-11 17:02:00,
2013-05-11 13:12:00,63.0,60.0,29.73,South,173,4.0,14.0,89,0.00,,,0.13,,2013-05-11 17:12:00,
2013-05-11 13:22:00,64.0,61.0,29.73,SSE,158,3.0,7.0,89,0.00,,,0.13,,2013-05-11 17:22:00,
2013-05-11 13:32:00,65.0,61.0,29.71,SSE,161,1.0,9.0,88,0.00,,,0.13,,2013-05-11 17:32:00,
2013-05-11 13:42:00,67.0,62.0,29.71,South,185,3.0,7.0,85,0.00,,,0.13,,2013-05-11 17:42:00,
2013-05-11 13:52:00,67.0,62.0,29.71,South,185,3.0,7.0,85,0.00,,,0.13,,2013-05-11 17:52:00,
2013-05-11 14:01:00,71.0,64.0,29.69,West,261,1.0,10.0,78,0.00,,,0.13,,2013-05-11 18:01:00,
2013-05-11 14:12:00,71.0,64.0,29.69,West,261,1.0,10.0,78,0.00,,,0.13,,2013-05-11 18:12:00,
2013-05-11 14:21:00,71.0,62.0,29.69,ESE,107,2.0,10.0,72,0.00,,,0.13,,2013-05-11 18:21:00,
2013-05-11 14:32:00,65.0,59.0,29.69,SE,135,10.0,16.0,82,0.00,,,0.13,,2013-05-11 18:32:00,
2013-05-11 14:42:00,65.0,59.0,29.69,SE,135,10.0,16.0,82,0.00,,,0.13,,2013-05-11 18:42:00,
2013-05-11 14:52:00,65.0,60.0,29.69,South,169,7.0,15.0,83,0.00,,,0.13,,2013-05-11 18:52:00,
2013-05-11 15:02:00,69.0,62.0,29.67,North,350,2.0,9.0,79,0.00,,,0.13,,2013-05-11 19:02:00,
2013-05-11 15:11:00,69.0,62.0,29.67,North,350,2.0,9.0,79,0.00,,,0.13,,2013-05-11 19:11:00,
2013-05-11 15:21:00,67.0,58.0,29.67,ESE,119,6.0,18.0,74,0.00,,,0.13,,2013-05-11 19:21:00,
2013-05-11 15:32:00,64.0,58.0,29.66,South,187,13.0,23.0,82,0.00,,,0.13,,2013-05-11 19:32:00,
2013-05-11 15:42:00,64.0,58.0,29.66,South,187,13.0,23.0,82,0.00,,,0.13,,2013-05-11 19:42:00,
2013-05-11 15:52:00,63.0,58.0,29.66,SE,125,9.0,19.0,83,0.00,,,0.13,,2013-05-11 19:52:00,
2013-05-11 16:02:00,61.0,57.0,29.65,SSE,155,12.0,23.0,87,0.00,,,0.13,,2013-05-11 20:02:00,
2013-05-11 16:12:00,61.0,57.0,29.65,SSE,155,12.0,23.0,87,0.00,,,0.13,,2013-05-11 20:12:00,
2013-05-11 16:22:00,61.0,58.0,29.65,SSE,153,6.0,20.0,89,0.00,,,0.13,,2013-05-11 20:22:00,
2013-05-11 16:32:00,60.0,57.0,29.67,SSE,162,2.0,9.0,91,0.03,,,0.16,,2013-05-11 20:32:00,
2013-05-11 16:42:00,60.0,58.0,29.67,SSE,159,2.0,8.0,92,0.08,,,0.21,,2013-05-11 20:42:00,
2013-05-11 16:52:00,60.0,58.0,29.67,SSE,159,2.0,8.0,92,0.08,,,0.21,,2013-05-11 20:52:00,
2013-05-11 17:02:00,62.0,61.0,29.66,South,173,3.0,12.0,95,0.21,,,0.34,,2013-05-11 21:02:00,
2013-05-11 17:11:00,62.0,61.0,29.66,South,173,3.0,12.0,95,0.21,,,0.34,,2013-05-11 21:11:00,
2013-05-11 17:22:00,62.0,61.0,29.66,SSW,196,0.0,4.0,95,0.26,,,0.39,,2013-05-11 21:22:00,
2013-05-11 17:33:00,63.0,62.0,29.67,NNE,14,4.0,7.0,96,0.27,,,0.43,,2013-05-11 21:33:00,
2013-05-11 17:43:00,63.0,62.0,29.67,NNE,14,4.0,7.0,96,0.27,,,0.43,,2013-05-11 21:43:00,
2013-05-11 17:52:00,63.0,62.0,29.67,NE,46,1.0,5.0,96,0.21,,,0.43,,2013-05-11 21:52:00,
2013-05-11 18:02:00,63.0,62.0,29.68,NE,45,0.0,1.0,96,0.11,,,0.45,,2013-05-11 22:02:00,
2013-05-11 18:13:00,63.0,62.0,29.68,NE,45,0.0,1.0,96,0.11,,,0.45,,2013-05-11 22:13:00,
2013-05-11 18:23:00,63.0,62.0,29.68,NE,46,0.0,1.0,96,0.05,,,0.45,,2013-05-11 22:23:00,
2013-05-11 18:33:00,62.0,61.0,29.67,NE,52,0.0,0.0,96,0.02,,,0.45,,2013-05-11 22:33:00,
2013-05-11 18:42:00,62.0,61.0,29.67,NE,52,0.0,0.0,96,0.02,,,0.45,,2013-05-11 22:42:00,
2013-05-11 18:52:00,62.0,61.0,29.67,NE,52,0.0,0.0,96,0.02,,,0.45,,2013-05-11 22:52:00,
2013-05-11 19:02:00,62.0,61.0,29.66,NE,52,0.0,1.0,96,0.00,,,0.45,,2013-05-11 23:02:00,
2013-05-11 19:12:00,62.0,61.0,29.66,NE,52,0.0,1.0,96,0.00,,,0.45,,2013-05-11 23:12:00,
2013-05-11 19:22:00,60.0,59.0,29.66,ESE,107,1.0,7.0,96,0.00,,,0.45,,2013-05-11 23:22:00,
2013-05-11 19:32:00,60.0,59.0,29.66,ESE,107,0.0,1.0,97,0.00,,,0.45,,2013-05-11 23:32:00,
2013-05-11 19:42:00,60.0,59.0,29.66,ESE,107,0.0,0.0,97,0.00,,,0.45,,2013-05-11 23:42:00,
2013-05-11 19:52:00,60.0,59.0,29.66,ESE,107,0.0,0.0,97,0.00,,,0.45,,2013-05-11 23:52:00,
2013-05-11 20:01:00,60.0,59.0,29.67,ESE,109,1.0,4.0,97,0.00,,,0.45,,2013-05-12 00:01:00,
2013-05-11 20:12:00,60.0,59.0,29.67,ESE,109,1.0,4.0,97,0.00,,,0.45,,2013-05-12 00:12:00,
2013-05-11 20:21:00,60.0,59.0,29.67,SSE,153,5.0,9.0,96,0.00,,,0.45,,2013-05-12 00:21:00,
2013-05-11 20:32:00,60.0,59.0,29.66,South,172,0.0,1.0,97,0.00,,,0.45,,2013-05-12 00:32:00,
2013-05-11 20:42:00,61.0,60.0,29.66,South,172,0.0,3.0,97,0.00,,,0.45,,2013-05-12 00:42:00,
2013-05-11 20:52:00,61.0,60.0,29.66,South,172,0.0,3.0,97,0.00,,,0.45,,2013-05-12 00:52:00,
2013-05-11 21:01:00,61.0,60.0,29.67,South,172,0.0,1.0,98,0.00,,,0.45,,2013-05-12 01:01:00,
2013-05-11 21:11:00,61.0,60.0,29.67,South,172,0.0,1.0,98,0.00,,,0.45,,2013-05-12 01:11:00,
2013-05-11 21:21:00,62.0,61.0,29.67,South,172,0.0,1.0,97,0.00,,,0.45,,2013-05-12 01:21:00,
2013-05-11 21:32:00,62.0,61.0,29.67,South,176,2.0,4.0,98,0.00,,,0.45,,2013-05-12 01:32:00,
2013-05-11 21:42:00,62.0,61.0,29.67,South,175,2.0,5.0,98,0.05,,,0.50,,2013-05-12 01:42:00,
2013-05-11 21:52:00,62.0,61.0,29.67,South,175,2.0,5.0,98,0.05,,,0.50,,2013-05-12 01:52:00,
2013-05-11 22:01:00,63.0,62.0,29.66,SSW,199,0.0,5.0,98,0.11,,,0.56,,2013-05-12 02:01:00,
2013-05-11 22:12:00,63.0,62.0,29.66,SSW,199,0.0,5.0,98,0.11,,,0.56,,2013-05-12 02:12:00,
2013-05-11 22:22:00,63.0,62.0,29.66,SSW,200,1.0,6.0,98,0.11,,,0.56,,2013-05-12 02:22:00,
2013-05-11 22:32:00,64.0,63.0,29.65,SSW,206,2.0,4.0,98,0.11,,,0.57,,2013-05-12 02:32:00,
2013-05-11 22:42:00,64.0,63.0,29.65,SSW,206,2.0,4.0,98,0.11,,,0.57,,2013-05-12 02:42:00,
2013-05-11 22:52:00,64.0,63.0,29.65,SSW,206,2.0,4.0,98,0.11,,,0.57,,2013-05-12 02:52:00,
2013-05-11 23:02:00,64.0,63.0,29.65,SSW,206,0.0,0.0,98,0.01,,,0.57,,2013-05-12 03:02:00,
2013-05-11 23:11:00,64.0,63.0,29.65,SSW,206,0.0,0.0,98,0.00,,,0.57,,2013-05-12 03:11:00,
2013-05-11 23:22:00,64.0,63.0,29.65,SSW,206,0.0,0.0,98,0.00,,,0.57,,2013-05-12 03:22:00,
2013-05-11 23:33:00,64.0,63.0,29.65,SSW,206,0.0,1.0,98,0.00,,,0.57,,2013-05-12 03:33:00,
2013-05-11 23:43:00,64.0,63.0,29.65,SSW,206,0.0,1.0,98,0.00,,,0.57,,2013-05-12 03:43:00,
2013-05-11 23:53:00,64.0,63.0,29.65,SSW,206,0.0,4.0,98,0.00,,,0.57,,2013-05-12 03:53:00,